VOYAGER:1:PRINTED,ON:,1-OCT-01:10:45:21:V179053S15
START_TIME,STOP_TIME,SECTOR,SCAN_DIR,SARRATE,SARUNC,SALRATE,SALUNC,ALARRATE,ALARUNC,SE5RATE,SE5UNC,SE4RATE,SE4UNC
1979-02-22 00:00:11.770 ,1979-02-22 00:00:17.710 ,3,1,-1.00,-1.00,-1.00,-1.00,44.2,3.03,-1.00,-1.00,-1.00,-1.00
1979-02-22 00:00:18.140 ,1979-02-22 00:00:41.710 ,4,1,-1.00,-1.00,-1.00,-1.00,46.7,1.55,-1.00,-1.00,-1.00,-1.00
1979-02-22 00:00:42.140 ,1979-02-22 00:01:05.710 ,5,1,-1.00,-1.00,-1.00,-1.00,47.5,1.57,-1.00,-1.00,-1.00,-1.00
1979-02-22 00:01:06.140 ,1979-02-22 00:01:29.710 ,6,1,-1.00,-1.00,-1.00,-1.00,46.3,1.55,-1.00,-1.00,33.8,2.37
1979-02-22 00:01:30.140 ,1979-02-22 00:01:53.710 ,7,1,-1.00,-1.00,-1.00,-1.00,46.5,1.55,86.0,3.78,33.1,2.62
1979-02-22 00:01:54.140 ,1979-02-22 00:02:35.710 ,8,1,-1.00,-1.00,159.,3.82,45.1,1.16,83.8,4.17,-1.00,-1.00
1979-02-22 00:02:35.770 ,1979-02-22 00:02:41.710 ,8,-1,149.,4.97,-1.00,-1.00,49.2,3.20,-1.00,-1.00,-1.00,-1.00
1979-02-22 00:02:42.140 ,1979-02-22 00:03:05.710 ,7,-1,135.,5.29,-1.00,-1.00,44.6,1.52,-1.00,-1.00,-1.00,-1.00
1979-02-22 00:03:06.140 ,1979-02-22 00:03:29.710 ,6,-1,-1.00,-1.00,-1.00,-1.00,44.8,1.53,-1.00,-1.00,-1.00,-1.00
1979-02-22 00:03:30.140 ,1979-02-22 00:03:53.710 ,5,-1,-1.00,-1.00,-1.00,-1.00,47.3,1.57,-1.00,-1.00,-1.00,-1.00
1979-02-22 00:03:54.140 ,1979-02-22 00:04:17.710 ,4,-1,-1.00,-1.00,-1.00,-1.00,43.5,1.50,-1.00,-1.00,-1.00,-1.00
1979-02-22 00:04:18.140 ,1979-02-22 00:04:41.710 ,3,-1,-1.00,-1.00,-1.00,-1.00,45.6,1.54,-1.00,-1.00,34.0,2.38
1979-02-22 00:04:42.140 ,1979-02-22 00:05:05.710 ,2,-1,-1.00,-1.00,-1.00,-1.00,45.6,1.54,83.3,3.72,34.4,2.67
1979-02-22 00:05:05.770 ,1979-02-22 00:05:30.140 ,1,-1,-1.00,-1.00,171.,4.87,44.7,1.76,90.0,8.65,-1.00,-1.00
1979-02-22 00:05:30.140 ,1979-02-22 00:05:53.710 ,1,1,143.,4.88,205.,6.53,46.0,1.55,-1.00,-1.00,-1.00,-1.00
1979-02-22 00:05:54.140 ,1979-02-22 00:06:17.710 ,2,1,134.,5.28,-1.00,-1.00,46.3,1.55,-1.00,-1.00,-1.00,-1.00
1979-02-22 00:06:18.140 ,1979-02-22 00:06:41.710 ,3,1,-1.00,-1.00,-1.00,-1.00,44.0,1.51,-1.00,-1.00,-1.00,-1.00
1979-02-22 00:06:42.140 ,1979-02-22 00:07:05.710 ,4,1,-1.00,-1.00,-1.00,-1.00,45.8,1.54,-1.00,-1.00,-1.00,-1.00
1979-02-22 00:07:06.140 ,1979-02-22 00:07:29.710 ,5,1,-1.00,-1.00,-1.00,-1.00,49.4,1.60,-1.00,-1.00,-1.00,-1.00
1979-02-22 00:07:30.140 ,1979-02-22 00:07:53.710 ,6,1,-1.00,-1.00,-1.00,-1.00,47.1,1.56,-1.00,-1.00,31.7,2.30
1979-02-22 00:07:54.140 ,1979-02-22 00:08:17.710 ,7,1,-1.00,-1.00,-1.00,-1.00,42.3,1.48,91.7,3.90,37.7,2.80
1979-02-22 00:08:18.140 ,1979-02-22 00:08:59.710 ,8,1,-1.00,-1.00,165.,3.90,44.0,1.14,85.4,4.22,-1.00,-1.00
1979-02-22 00:08:59.770 ,1979-02-22 00:09:05.710 ,8,-1,144.,4.88,-1.00,-1.00,40.8,2.92,-1.00,-1.00,-1.00,-1.00
1979-02-22 00:09:06.140 ,1979-02-22 00:09:29.710 ,7,-1,138.,5.35,-1.00,-1.00,46.7,1.55,-1.00,-1.00,-1.00,-1.00
1979-02-22 00:09:30.140 ,1979-02-22 00:09:53.710 ,6,-1,-1.00,-1.00,-1.00,-1.00,46.7,1.55,-1.00,-1.00,-1.00,-1.00
1979-02-22 00:09:54.140 ,1979-02-22 00:10:17.710 ,5,-1,-1.00,-1.00,-1.00,-1.00,44.6,1.52,-1.00,-1.00,-1.00,-1.00
1979-02-22 00:10:18.140 ,1979-02-22 00:10:41.710 ,4,-1,-1.00,-1.00,-1.00,-1.00,47.1,1.56,-1.00,-1.00,-1.00,-1.00
1979-02-22 00:10:42.140 ,1979-02-22 00:11:05.710 ,3,-1,-1.00,-1.00,-1.00,-1.00,46.5,1.55,-1.00,-1.00,33.8,2.37
1979-02-22 00:11:06.140 ,1979-02-22 00:11:29.710 ,2,-1,-1.00,-1.00,-1.00,-1.00,44.6,1.52,76.7,3.57,31.5,2.56
1979-02-22 00:11:29.770 ,1979-02-22 00:11:54.140 ,1,-1,-1.00,-1.00,186.,5.06,44.2,1.75,100.,9.12,-1.00,-1.00
1979-02-22 00:11:54.140 ,1979-02-22 00:12:17.710 ,1,1,136.,4.76,158.,5.74,43.5,1.50,-1.00,-1.00,-1.00,-1.00
1979-02-22 00:12:18.140 ,1979-02-22 00:12:41.710 ,2,1,146.,5.49,-1.00,-1.00,46.7,1.55,-1.00,-1.00,-1.00,-1.00
1979-02-22 00:12:42.140 ,1979-02-22 00:13:05.710 ,3,1,-1.00,-1.00,-1.00,-1.00,44.8,1.53,-1.00,-1.00,-1.00,-1.00
1979-02-22 00:13:06.140 ,1979-02-22 00:13:29.710 ,4,1,-1.00,-1.00,-1.00,-1.00,42.5,1.49,-1.00,-1.00,-1.00,-1.00
1979-02-22 00:13:30.140 ,1979-02-22 00:13:53.710 ,5,1,-1.00,-1.00,-1.00,-1.00,47.3,1.57,-1.00,-1.00,-1.00,-1.00
1979-02-22 00:13:54.140 ,1979-02-22 00:14:17.710 ,6,1,-1.00,-1.00,-1.00,-1.00,43.8,1.50,-1.00,-1.00,29.0,2.20
1979-02-22 00:14:18.140 ,1979-02-22 00:14:41.710 ,7,1,-1.00,-1.00,-1.00,-1.00,43.3,1.50,87.7,3.82,35.0,2.70
1979-02-22 00:14:42.140 ,1979-02-22 00:15:23.710 ,8,1,-1.00,-1.00,207.,4.38,45.8,1.17,82.9,4.15,-1.00,-1.00
1979-02-22 00:15:23.770 ,1979-02-22 00:15:29.710 ,8,-1,137.,4.76,-1.00,-1.00,44.2,3.03,-1.00,-1.00,-1.00,-1.00
1979-02-22 00:15:30.140 ,1979-02-22 00:15:53.710 ,7,-1,137.,5.32,-1.00,-1.00,46.0,1.55,-1.00,-1.00,-1.00,-1.00
1979-02-22 00:15:54.140 ,1979-02-22 00:16:17.710 ,6,-1,-1.00,-1.00,-1.00,-1.00,44.6,1.52,-1.00,-1.00,-1.00,-1.00
1979-02-22 00:16:18.140 ,1979-02-22 00:16:41.710 ,5,-1,-1.00,-1.00,-1.00,-1.00,44.4,1.52,-1.00,-1.00,-1.00,-1.00
1979-02-22 00:16:42.140 ,1979-02-22 00:17:05.710 ,4,-1,-1.00,-1.00,-1.00,-1.00,45.8,1.54,-1.00,-1.00,-1.00,-1.00
1979-02-22 00:17:06.140 ,1979-02-22 00:17:29.710 ,3,-1,-1.00,-1.00,-1.00,-1.00,44.2,1.51,-1.00,-1.00,31.8,2.30
1979-02-22 00:17:30.140 ,1979-02-22 00:17:53.710 ,2,-1,-1.00,-1.00,-1.00,-1.00,44.4,1.52,86.7,3.79,32.3,2.59
1979-02-22 00:17:53.770 ,1979-02-22 00:18:18.140 ,1,-1,-1.00,-1.00,180.,4.98,49.4,1.85,76.7,7.99,-1.00,-1.00
1979-02-22 00:18:18.140 ,1979-02-22 00:18:41.710 ,1,1,142.,4.86,197.,6.39,45.2,1.53,-1.00,-1.00,-1.00,-1.00
1979-02-22 00:18:42.140 ,1979-02-22 00:19:05.710 ,2,1,131.,5.21,-1.00,-1.00,45.6,1.54,-1.00,-1.00,-1.00,-1.00
1979-02-22 00:19:06.140 ,1979-02-22 00:19:29.710 ,3,1,-1.00,-1.00,-1.00,-1.00,44.0,1.51,-1.00,-1.00,-1.00,-1.00
1979-02-22 00:19:30.140 ,1979-02-22 00:19:53.710 ,4,1,-1.00,-1.00,-1.00,-1.00,46.7,1.55,-1.00,-1.00,-1.00,-1.00
1979-02-22 00:19:54.140 ,1979-02-22 00:20:17.710 ,5,1,-1.00,-1.00,-1.00,-1.00,44.6,1.52,-1.00,-1.00,-1.00,-1.00
1979-02-22 00:20:18.140 ,1979-02-22 00:20:41.710 ,6,1,-1.00,-1.00,-1.00,-1.00,47.1,1.56,-1.00,-1.00,31.8,2.30
1979-02-22 00:20:42.140 ,1979-02-22 00:21:05.710 ,7,1,-1.00,-1.00,-1.00,-1.00,45.2,1.53,84.0,3.74,34.8,2.69
1979-02-22 00:21:06.140 ,1979-02-22 00:21:47.710 ,8,1,-1.00,-1.00,225.,4.54,45.1,1.16,85.0,4.20,-1.00,-1.00
1979-02-22 00:21:47.770 ,1979-02-22 00:21:53.710 ,8,-1,138.,4.79,-1.00,-1.00,40.8,2.92,-1.00,-1.00,-1.00,-1.00
1979-02-22 00:21:54.140 ,1979-02-22 00:22:17.710 ,7,-1,138.,5.35,-1.00,-1.00,44.8,1.53,-1.00,-1.00,-1.00,-1.00
1979-02-22 00:22:18.140 ,1979-02-22 00:22:41.710 ,6,-1,-1.00,-1.00,-1.00,-1.00,46.3,1.55,-1.00,-1.00,-1.00,-1.00
1979-02-22 00:22:42.140 ,1979-02-22 00:23:05.710 ,5,-1,-1.00,-1.00,-1.00,-1.00,44.6,1.52,-1.00,-1.00,-1.00,-1.00
1979-02-22 00:23:06.140 ,1979-02-22 00:23:29.710 ,4,-1,-1.00,-1.00,-1.00,-1.00,45.8,1.54,-1.00,-1.00,-1.00,-1.00
1979-02-22 00:23:30.140 ,1979-02-22 00:23:53.710 ,3,-1,-1.00,-1.00,-1.00,-1.00,43.3,1.50,-1.00,-1.00,33.3,2.35
1979-02-22 00:23:54.140 ,1979-02-22 00:24:17.710 ,2,-1,-1.00,-1.00,-1.00,-1.00,48.7,1.59,79.3,3.63,31.5,2.56
1979-02-22 00:24:17.770 ,1979-02-22 00:24:42.140 ,1,-1,-1.00,-1.00,170.,4.83,43.9,1.74,68.3,7.54,-1.00,-1.00
1979-02-22 00:24:42.140 ,1979-02-22 00:25:05.710 ,1,1,143.,4.88,187.,6.21,48.5,1.59,-1.00,-1.00,-1.00,-1.00
1979-02-22 00:25:06.140 ,1979-02-22 00:25:29.710 ,2,1,139.,5.37,-1.00,-1.00,45.2,1.53,-1.00,-1.00,-1.00,-1.00
1979-02-22 00:25:30.140 ,1979-02-22 00:25:53.710 ,3,1,-1.00,-1.00,-1.00,-1.00,44.2,1.51,-1.00,-1.00,-1.00,-1.00
1979-02-22 00:25:54.140 ,1979-02-22 00:26:17.710 ,4,1,-1.00,-1.00,-1.00,-1.00,44.8,1.53,-1.00,-1.00,-1.00,-1.00
1979-02-22 00:26:18.140 ,1979-02-22 00:26:41.710 ,5,1,-1.00,-1.00,-1.00,-1.00,48.1,1.58,-1.00,-1.00,-1.00,-1.00
1979-02-22 00:26:42.140 ,1979-02-22 00:27:05.710 ,6,1,-1.00,-1.00,-1.00,-1.00,48.5,1.59,-1.00,-1.00,39.2,2.55
1979-02-22 00:27:06.140 ,1979-02-22 00:27:29.710 ,7,1,-1.00,-1.00,-1.00,-1.00,46.0,1.55,78.3,3.61,34.4,2.67
1979-02-22 00:27:30.140 ,1979-02-22 00:28:11.710 ,8,1,-1.00,-1.00,171.,3.97,46.2,1.17,86.3,4.23,-1.00,-1.00
1979-02-22 00:28:11.770 ,1979-02-22 00:28:17.710 ,8,-1,141.,4.84,-1.00,-1.00,46.7,3.11,-1.00,-1.00,-1.00,-1.00
1979-02-22 00:28:18.140 ,1979-02-22 00:28:41.710 ,7,-1,144.,5.47,-1.00,-1.00,46.5,1.55,-1.00,-1.00,-1.00,-1.00
1979-02-22 00:28:42.140 ,1979-02-22 00:29:05.710 ,6,-1,-1.00,-1.00,-1.00,-1.00,48.3,1.59,-1.00,-1.00,-1.00,-1.00
1979-02-22 00:29:06.140 ,1979-02-22 00:29:29.710 ,5,-1,-1.00,-1.00,-1.00,-1.00,43.1,1.50,-1.00,-1.00,-1.00,-1.00
1979-02-22 00:29:30.140 ,1979-02-22 00:29:53.710 ,4,-1,-1.00,-1.00,-1.00,-1.00,47.3,1.57,-1.00,-1.00,-1.00,-1.00
1979-02-22 00:29:54.140 ,1979-02-22 00:30:17.710 ,3,-1,-1.00,-1.00,-1.00,-1.00,48.1,1.58,-1.00,-1.00,33.8,2.37
1979-02-22 00:30:18.140 ,1979-02-22 00:30:41.710 ,2,-1,-1.00,-1.00,-1.00,-1.00,45.4,1.53,83.0,3.71,34.2,2.66
1979-02-22 00:30:41.770 ,1979-02-22 00:31:06.140 ,1,-1,-1.00,-1.00,216.,5.46,43.3,1.73,83.3,8.33,-1.00,-1.00
1979-02-22 00:31:06.140 ,1979-02-22 00:31:29.710 ,1,1,139.,4.79,243.,7.11,45.4,1.53,-1.00,-1.00,-1.00,-1.00
1979-02-22 00:31:30.140 ,1979-02-22 00:31:53.710 ,2,1,143.,5.44,-1.00,-1.00,45.0,1.53,-1.00,-1.00,-1.00,-1.00
1979-02-22 00:31:54.140 ,1979-02-22 00:32:17.710 ,3,1,-1.00,-1.00,-1.00,-1.00,45.8,1.54,-1.00,-1.00,-1.00,-1.00
1979-02-22 00:32:18.140 ,1979-02-22 00:32:41.710 ,4,1,-1.00,-1.00,-1.00,-1.00,45.0,1.53,-1.00,-1.00,-1.00,-1.00
1979-02-22 00:32:42.140 ,1979-02-22 00:33:05.710 ,5,1,-1.00,-1.00,-1.00,-1.00,45.4,1.53,-1.00,-1.00,-1.00,-1.00
1979-02-22 00:33:06.140 ,1979-02-22 00:33:29.710 ,6,1,-1.00,-1.00,-1.00,-1.00,43.3,1.50,-1.00,-1.00,35.2,2.42
1979-02-22 00:33:30.140 ,1979-02-22 00:33:53.710 ,7,1,-1.00,-1.00,-1.00,-1.00,47.5,1.57,88.0,3.82,34.0,2.66
1979-02-22 00:33:54.140 ,1979-02-22 00:34:35.710 ,8,1,-1.00,-1.00,181.,4.07,46.0,1.16,93.3,4.40,-1.00,-1.00
1979-02-22 00:34:35.770 ,1979-02-22 00:34:41.710 ,8,-1,140.,4.81,-1.00,-1.00,45.8,3.09,-1.00,-1.00,-1.00,-1.00
1979-02-22 00:34:42.140 ,1979-02-22 00:35:05.710 ,7,-1,133.,5.25,-1.00,-1.00,43.1,1.50,-1.00,-1.00,-1.00,-1.00
1979-02-22 00:35:06.140 ,1979-02-22 00:35:29.710 ,6,-1,-1.00,-1.00,-1.00,-1.00,43.8,1.50,-1.00,-1.00,-1.00,-1.00
1979-02-22 00:35:30.140 ,1979-02-22 00:35:53.710 ,5,-1,-1.00,-1.00,-1.00,-1.00,42.9,1.49,-1.00,-1.00,-1.00,-1.00
1979-02-22 00:35:54.140 ,1979-02-22 00:36:17.710 ,4,-1,-1.00,-1.00,-1.00,-1.00,48.3,1.59,-1.00,-1.00,-1.00,-1.00
1979-02-22 00:36:18.140 ,1979-02-22 00:36:41.710 ,3,-1,-1.00,-1.00,-1.00,-1.00,47.3,1.57,-1.00,-1.00,33.2,2.35
1979-02-22 00:36:42.140 ,1979-02-22 00:37:05.710 ,2,-1,-1.00,-1.00,-1.00,-1.00,47.5,1.57,88.0,3.82,27.1,2.37
1979-02-22 00:37:05.770 ,1979-02-22 00:37:30.140 ,1,-1,-1.00,-1.00,251.,5.89,47.5,1.81,102.,9.20,-1.00,-1.00
1979-02-22 00:37:30.140 ,1979-02-22 00:37:53.710 ,1,1,135.,4.74,213.,6.67,43.3,1.50,-1.00,-1.00,-1.00,-1.00
1979-02-22 00:37:54.140 ,1979-02-22 00:38:17.710 ,2,1,144.,5.47,-1.00,-1.00,45.6,1.54,-1.00,-1.00,-1.00,-1.00
1979-02-22 00:38:18.140 ,1979-02-22 00:38:41.710 ,3,1,-1.00,-1.00,-1.00,-1.00,45.4,1.53,-1.00,-1.00,-1.00,-1.00
1979-02-22 00:38:42.140 ,1979-02-22 00:39:05.710 ,4,1,-1.00,-1.00,-1.00,-1.00,44.4,1.52,-1.00,-1.00,-1.00,-1.00
1979-02-22 00:39:06.140 ,1979-02-22 00:39:29.710 ,5,1,-1.00,-1.00,-1.00,-1.00,46.0,1.55,-1.00,-1.00,-1.00,-1.00
1979-02-22 00:39:30.140 ,1979-02-22 00:39:53.710 ,6,1,-1.00,-1.00,-1.00,-1.00,46.7,1.55,-1.00,-1.00,31.0,2.27
1979-02-22 00:39:54.140 ,1979-02-22 00:40:17.710 ,7,1,-1.00,-1.00,-1.00,-1.00,44.6,1.52,86.0,3.78,33.8,2.65
1979-02-22 00:40:18.140 ,1979-02-22 00:40:59.710 ,8,1,-1.00,-1.00,210.,4.40,46.9,1.18,92.9,4.40,-1.00,-1.00
1979-02-22 00:40:59.770 ,1979-02-22 00:41:05.710 ,8,-1,127.,4.60,-1.00,-1.00,40.8,2.92,-1.00,-1.00,-1.00,-1.00
1979-02-22 00:41:06.140 ,1979-02-22 00:41:29.710 ,7,-1,130.,5.20,-1.00,-1.00,46.3,1.55,-1.00,-1.00,-1.00,-1.00
1979-02-22 00:41:30.140 ,1979-02-22 00:41:53.710 ,6,-1,-1.00,-1.00,-1.00,-1.00,46.7,1.55,-1.00,-1.00,-1.00,-1.00
1979-02-22 00:41:54.140 ,1979-02-22 00:42:17.710 ,5,-1,-1.00,-1.00,-1.00,-1.00,49.2,1.60,-1.00,-1.00,-1.00,-1.00
1979-02-22 00:42:18.140 ,1979-02-22 00:42:41.710 ,4,-1,-1.00,-1.00,-1.00,-1.00,44.6,1.52,-1.00,-1.00,-1.00,-1.00
1979-02-22 00:42:42.140 ,1979-02-22 00:43:05.710 ,3,-1,-1.00,-1.00,-1.00,-1.00,46.3,1.55,-1.00,-1.00,29.5,2.22
1979-02-22 00:43:06.140 ,1979-02-22 00:43:29.710 ,2,-1,-1.00,-1.00,-1.00,-1.00,48.1,1.58,85.0,3.76,36.7,2.76
1979-02-22 00:43:29.770 ,1979-02-22 00:43:54.140 ,1,-1,-1.00,-1.00,181.,4.99,45.6,1.77,75.0,7.90,-1.00,-1.00
1979-02-22 00:43:54.140 ,1979-02-22 00:44:17.710 ,1,1,142.,4.86,191.,6.29,45.6,1.54,-1.00,-1.00,-1.00,-1.00
1979-02-22 00:44:18.140 ,1979-02-22 00:44:41.710 ,2,1,127.,5.14,-1.00,-1.00,47.5,1.57,-1.00,-1.00,-1.00,-1.00
1979-02-22 00:44:42.140 ,1979-02-22 00:45:05.710 ,3,1,-1.00,-1.00,-1.00,-1.00,46.5,1.55,-1.00,-1.00,-1.00,-1.00
1979-02-22 00:45:06.140 ,1979-02-22 00:45:29.710 ,4,1,-1.00,-1.00,-1.00,-1.00,44.2,1.51,-1.00,-1.00,-1.00,-1.00
1979-02-22 00:45:30.140 ,1979-02-22 00:45:53.710 ,5,1,-1.00,-1.00,-1.00,-1.00,45.2,1.53,-1.00,-1.00,-1.00,-1.00
1979-02-22 00:45:54.140 ,1979-02-22 00:46:17.710 ,6,1,-1.00,-1.00,-1.00,-1.00,44.6,1.52,-1.00,-1.00,32.5,2.33
1979-02-22 00:46:18.140 ,1979-02-22 00:46:41.710 ,7,1,-1.00,-1.00,-1.00,-1.00,45.0,1.53,84.7,3.74,36.9,2.77
1979-02-22 00:46:42.140 ,1979-02-22 00:47:23.710 ,8,1,-1.00,-1.00,232.,4.60,43.3,1.13,86.7,4.24,-1.00,-1.00
1979-02-22 00:47:23.770 ,1979-02-22 00:47:29.710 ,8,-1,153.,5.06,-1.00,-1.00,49.2,3.20,-1.00,-1.00,-1.00,-1.00
1979-02-22 00:47:30.140 ,1979-02-22 00:47:53.710 ,7,-1,136.,5.31,-1.00,-1.00,44.6,1.52,-1.00,-1.00,-1.00,-1.00
1979-02-22 00:47:54.140 ,1979-02-22 00:48:17.710 ,6,-1,-1.00,-1.00,-1.00,-1.00,48.5,1.59,-1.00,-1.00,-1.00,-1.00
1979-02-22 00:48:18.140 ,1979-02-22 00:48:41.710 ,5,-1,-1.00,-1.00,-1.00,-1.00,48.7,1.59,-1.00,-1.00,-1.00,-1.00
1979-02-22 00:48:42.140 ,1979-02-22 00:49:05.710 ,4,-1,-1.00,-1.00,-1.00,-1.00,45.4,1.53,-1.00,-1.00,-1.00,-1.00
1979-02-22 00:49:06.140 ,1979-02-22 00:49:29.710 ,3,-1,-1.00,-1.00,-1.00,-1.00,47.1,1.56,-1.00,-1.00,31.0,2.27
1979-02-22 00:49:30.140 ,1979-02-22 00:49:47.710 ,2,-1,-1.00,-1.00,-1.00,-1.00,47.2,1.81,-1.00,-1.00,32.5,2.60
1979-02-22 00:49:47.770 ,1979-02-22 00:50:11.770 ,9,0,-1.00,-1.00,-1.00,-1.00,45.2,1.37,80.5,2.58,-1.00,-1.00
1979-02-22 00:50:11.770 ,1979-02-22 00:50:18.140 ,1,-1,-1.00,-1.00,206.,5.35,48.7,2.25,-1.00,-1.00,-1.00,-1.00
1979-02-22 00:50:18.140 ,1979-02-22 00:50:41.710 ,1,1,141.,4.84,210.,6.60,45.4,1.53,-1.00,-1.00,-1.00,-1.00
1979-02-22 00:50:42.140 ,1979-02-22 00:51:05.710 ,2,1,139.,5.37,-1.00,-1.00,44.6,1.52,-1.00,-1.00,-1.00,-1.00
1979-02-22 00:51:06.140 ,1979-02-22 00:51:29.710 ,3,1,-1.00,-1.00,-1.00,-1.00,45.6,1.54,-1.00,-1.00,-1.00,-1.00
1979-02-22 00:51:30.140 ,1979-02-22 00:51:53.710 ,4,1,-1.00,-1.00,-1.00,-1.00,45.0,1.53,-1.00,-1.00,-1.00,-1.00
1979-02-22 00:51:54.140 ,1979-02-22 00:52:17.710 ,5,1,-1.00,-1.00,-1.00,-1.00,45.2,1.53,-1.00,-1.00,-1.00,-1.00
1979-02-22 00:52:18.140 ,1979-02-22 00:52:41.710 ,6,1,-1.00,-1.00,-1.00,-1.00,45.2,1.53,-1.00,-1.00,32.0,2.31
1979-02-22 00:52:42.140 ,1979-02-22 00:53:05.710 ,7,1,-1.00,-1.00,-1.00,-1.00,47.3,1.57,89.7,3.85,29.2,2.46
1979-02-22 00:53:06.140 ,1979-02-22 00:53:47.710 ,8,1,-1.00,-1.00,203.,4.31,45.4,1.16,87.5,4.27,-1.00,-1.00
1979-02-22 00:53:47.770 ,1979-02-22 00:53:53.710 ,8,-1,140.,4.81,-1.00,-1.00,50.0,3.23,-1.00,-1.00,-1.00,-1.00
1979-02-22 00:53:54.140 ,1979-02-22 00:54:17.710 ,7,-1,133.,5.24,-1.00,-1.00,43.1,1.50,-1.00,-1.00,-1.00,-1.00
1979-02-22 00:54:18.140 ,1979-02-22 00:54:41.710 ,6,-1,-1.00,-1.00,-1.00,-1.00,45.8,1.54,-1.00,-1.00,-1.00,-1.00
1979-02-22 00:54:42.140 ,1979-02-22 00:55:05.710 ,5,-1,-1.00,-1.00,-1.00,-1.00,42.1,1.48,-1.00,-1.00,-1.00,-1.00
1979-02-22 00:55:06.140 ,1979-02-22 00:55:29.710 ,4,-1,-1.00,-1.00,-1.00,-1.00,46.3,1.55,-1.00,-1.00,-1.00,-1.00
1979-02-22 00:55:30.140 ,1979-02-22 00:55:53.710 ,3,-1,-1.00,-1.00,-1.00,-1.00,44.8,1.53,-1.00,-1.00,30.7,2.26
1979-02-22 00:55:54.140 ,1979-02-22 00:56:17.710 ,2,-1,-1.00,-1.00,-1.00,-1.00,45.6,1.54,86.3,3.79,34.4,2.67
1979-02-22 00:56:17.770 ,1979-02-22 00:56:42.140 ,1,-1,-1.00,-1.00,202.,5.26,46.9,1.80,75.0,7.90,-1.00,-1.00
1979-02-22 00:56:42.140 ,1979-02-22 00:57:05.710 ,1,1,135.,4.73,174.,6.01,41.5,1.46,-1.00,-1.00,-1.00,-1.00
1979-02-22 00:57:06.140 ,1979-02-22 00:57:29.710 ,2,1,140.,5.38,-1.00,-1.00,46.7,1.55,-1.00,-1.00,-1.00,-1.00
1979-02-22 00:57:30.140 ,1979-02-22 00:57:53.710 ,3,1,-1.00,-1.00,-1.00,-1.00,46.9,1.56,-1.00,-1.00,-1.00,-1.00
1979-02-22 00:57:54.140 ,1979-02-22 00:58:17.710 ,4,1,-1.00,-1.00,-1.00,-1.00,46.5,1.55,-1.00,-1.00,-1.00,-1.00
1979-02-22 00:58:18.140 ,1979-02-22 00:58:41.710 ,5,1,-1.00,-1.00,-1.00,-1.00,43.5,1.50,-1.00,-1.00,-1.00,-1.00
1979-02-22 00:58:42.140 ,1979-02-22 00:59:05.710 ,6,1,-1.00,-1.00,-1.00,-1.00,47.3,1.57,-1.00,-1.00,34.7,2.40
1979-02-22 00:59:06.140 ,1979-02-22 00:59:29.710 ,7,1,-1.00,-1.00,-1.00,-1.00,46.5,1.55,85.3,3.76,30.6,2.52
1979-02-22 00:59:30.140 ,1979-02-22 00:00:11.710 ,8,1,-1.00,-1.00,272.,5.01,44.8,1.15,85.0,4.20,-1.00,-1.00
1979-02-22 01:00:11.770 ,1979-02-22 01:00:17.710 ,8,-1,135.,4.73,-1.00,-1.00,45.8,3.09,-1.00,-1.00,-1.00,-1.00
1979-02-22 01:00:18.140 ,1979-02-22 01:00:41.710 ,7,-1,142.,5.42,-1.00,-1.00,47.3,1.57,-1.00,-1.00,-1.00,-1.00
1979-02-22 01:00:42.140 ,1979-02-22 01:01:05.710 ,6,-1,-1.00,-1.00,-1.00,-1.00,44.6,1.52,-1.00,-1.00,-1.00,-1.00
1979-02-22 01:01:06.140 ,1979-02-22 01:01:29.710 ,5,-1,-1.00,-1.00,-1.00,-1.00,42.1,1.48,-1.00,-1.00,-1.00,-1.00
1979-02-22 01:01:30.140 ,1979-02-22 01:01:53.710 ,4,-1,-1.00,-1.00,-1.00,-1.00,44.2,1.51,-1.00,-1.00,-1.00,-1.00
1979-02-22 01:01:54.140 ,1979-02-22 01:02:17.710 ,3,-1,-1.00,-1.00,-1.00,-1.00,45.8,1.54,-1.00,-1.00,31.3,2.28
1979-02-22 01:02:18.140 ,1979-02-22 01:02:41.710 ,2,-1,-1.00,-1.00,-1.00,-1.00,47.7,1.57,81.7,3.69,32.1,2.58
1979-02-22 01:02:41.770 ,1979-02-22 01:03:06.140 ,1,-1,-1.00,-1.00,179.,4.99,48.1,1.82,60.0,7.07,-1.00,-1.00
1979-02-22 01:03:06.140 ,1979-02-22 01:03:29.710 ,1,1,151.,4.99,174.,6.01,46.7,1.55,-1.00,-1.00,-1.00,-1.00
1979-02-22 01:03:30.140 ,1979-02-22 01:03:53.710 ,2,1,140.,5.38,-1.00,-1.00,47.1,1.56,-1.00,-1.00,-1.00,-1.00
1979-02-22 01:03:54.140 ,1979-02-22 01:04:17.710 ,3,1,-1.00,-1.00,-1.00,-1.00,47.5,1.57,-1.00,-1.00,-1.00,-1.00
1979-02-22 01:04:18.140 ,1979-02-22 01:04:41.710 ,4,1,-1.00,-1.00,-1.00,-1.00,47.5,1.57,-1.00,-1.00,-1.00,-1.00
1979-02-22 01:04:42.140 ,1979-02-22 01:05:05.710 ,5,1,-1.00,-1.00,-1.00,-1.00,42.1,1.48,-1.00,-1.00,-1.00,-1.00
1979-02-22 01:05:06.140 ,1979-02-22 01:05:29.710 ,6,1,-1.00,-1.00,-1.00,-1.00,45.8,1.54,-1.00,-1.00,33.0,2.34
1979-02-22 01:05:30.140 ,1979-02-22 01:05:53.710 ,7,1,-1.00,-1.00,-1.00,-1.00,44.8,1.53,85.3,3.76,33.3,2.63
1979-02-22 01:05:54.140 ,1979-02-22 01:06:35.710 ,8,1,-1.00,-1.00,200.,4.28,45.1,1.16,83.8,4.17,-1.00,-1.00
1979-02-22 01:06:35.770 ,1979-02-22 01:06:41.710 ,8,-1,143.,4.88,-1.00,-1.00,40.8,2.92,-1.00,-1.00,-1.00,-1.00
1979-02-22 01:06:42.140 ,1979-02-22 01:07:05.710 ,7,-1,136.,5.31,-1.00,-1.00,45.0,1.53,-1.00,-1.00,-1.00,-1.00
1979-02-22 01:07:06.140 ,1979-02-22 01:07:29.710 ,6,-1,-1.00,-1.00,-1.00,-1.00,45.8,1.54,-1.00,-1.00,-1.00,-1.00
1979-02-22 01:07:30.140 ,1979-02-22 01:07:53.710 ,5,-1,-1.00,-1.00,-1.00,-1.00,45.4,1.53,-1.00,-1.00,-1.00,-1.00
1979-02-22 01:07:54.140 ,1979-02-22 01:08:17.710 ,4,-1,-1.00,-1.00,-1.00,-1.00,47.7,1.57,-1.00,-1.00,-1.00,-1.00
1979-02-22 01:08:18.140 ,1979-02-22 01:08:41.710 ,3,-1,-1.00,-1.00,-1.00,-1.00,46.5,1.55,-1.00,-1.00,35.2,2.42
1979-02-22 01:08:42.140 ,1979-02-22 01:09:05.710 ,2,-1,-1.00,-1.00,-1.00,-1.00,46.9,1.56,82.3,3.69,31.0,2.54
1979-02-22 01:09:05.770 ,1979-02-22 01:09:30.140 ,1,-1,-1.00,-1.00,240.,5.74,45.8,1.78,70.0,7.63,-1.00,-1.00
1979-02-22 01:09:30.140 ,1979-02-22 01:09:53.710 ,1,1,143.,4.86,196.,6.36,43.8,1.50,-1.00,-1.00,-1.00,-1.00
1979-02-22 01:09:54.140 ,1979-02-22 01:10:17.710 ,2,1,127.,5.13,-1.00,-1.00,46.7,1.55,-1.00,-1.00,-1.00,-1.00
1979-02-22 01:10:18.140 ,1979-02-22 01:10:41.710 ,3,1,-1.00,-1.00,-1.00,-1.00,47.1,1.56,-1.00,-1.00,-1.00,-1.00
1979-02-22 01:10:42.140 ,1979-02-22 01:11:05.710 ,4,1,-1.00,-1.00,-1.00,-1.00,46.0,1.55,-1.00,-1.00,-1.00,-1.00
1979-02-22 01:11:06.140 ,1979-02-22 01:11:29.710 ,5,1,-1.00,-1.00,-1.00,-1.00,47.5,1.57,-1.00,-1.00,-1.00,-1.00
1979-02-22 01:11:30.140 ,1979-02-22 01:11:53.710 ,6,1,-1.00,-1.00,-1.00,-1.00,47.5,1.57,-1.00,-1.00,32.8,2.33
1979-02-22 01:11:54.140 ,1979-02-22 01:12:17.710 ,7,1,-1.00,-1.00,-1.00,-1.00,46.0,1.55,79.0,3.62,37.5,2.79
1979-02-22 01:12:18.140 ,1979-02-22 01:12:59.710 ,8,1,-1.00,-1.00,207.,4.38,46.0,1.16,76.7,3.99,-1.00,-1.00
1979-02-22 01:12:59.770 ,1979-02-22 01:13:05.710 ,8,-1,145.,4.91,-1.00,-1.00,47.5,3.14,-1.00,-1.00,-1.00,-1.00
1979-02-22 01:13:06.140 ,1979-02-22 01:13:29.710 ,7,-1,135.,5.29,-1.00,-1.00,44.0,1.51,-1.00,-1.00,-1.00,-1.00
1979-02-22 01:13:30.140 ,1979-02-22 01:13:53.710 ,6,-1,-1.00,-1.00,-1.00,-1.00,45.2,1.53,-1.00,-1.00,-1.00,-1.00
1979-02-22 01:13:54.140 ,1979-02-22 01:14:17.710 ,5,-1,-1.00,-1.00,-1.00,-1.00,45.0,1.53,-1.00,-1.00,-1.00,-1.00
1979-02-22 01:14:18.140 ,1979-02-22 01:14:41.710 ,4,-1,-1.00,-1.00,-1.00,-1.00,44.4,1.52,-1.00,-1.00,-1.00,-1.00
1979-02-22 01:14:42.140 ,1979-02-22 01:15:05.710 ,3,-1,-1.00,-1.00,-1.00,-1.00,45.4,1.53,-1.00,-1.00,36.2,2.45
1979-02-22 01:15:06.140 ,1979-02-22 01:15:29.710 ,2,-1,-1.00,-1.00,-1.00,-1.00,42.7,1.49,75.7,3.55,32.3,2.59
1979-02-22 01:15:29.770 ,1979-02-22 01:15:54.140 ,1,-1,-1.00,-1.00,186.,5.06,45.6,1.77,65.0,7.35,-1.00,-1.00
1979-02-22 01:15:54.140 ,1979-02-22 01:16:17.710 ,1,1,139.,4.81,177.,6.05,46.3,1.55,-1.00,-1.00,-1.00,-1.00
1979-02-22 01:16:18.140 ,1979-02-22 01:16:41.710 ,2,1,143.,5.44,-1.00,-1.00,42.7,1.49,-1.00,-1.00,-1.00,-1.00
1979-02-22 01:16:42.140 ,1979-02-22 01:17:05.710 ,3,1,-1.00,-1.00,-1.00,-1.00,47.1,1.56,-1.00,-1.00,-1.00,-1.00
1979-02-22 01:17:06.140 ,1979-02-22 01:17:29.710 ,4,1,-1.00,-1.00,-1.00,-1.00,45.8,1.54,-1.00,-1.00,-1.00,-1.00
1979-02-22 01:17:30.140 ,1979-02-22 01:17:53.710 ,5,1,-1.00,-1.00,-1.00,-1.00,45.4,1.53,-1.00,-1.00,-1.00,-1.00
1979-02-22 01:17:54.140 ,1979-02-22 01:18:17.710 ,6,1,-1.00,-1.00,-1.00,-1.00,45.6,1.54,-1.00,-1.00,34.7,2.40
1979-02-22 01:18:18.140 ,1979-02-22 01:18:41.710 ,7,1,-1.00,-1.00,-1.00,-1.00,45.8,1.54,83.3,3.72,35.8,2.73
1979-02-22 01:18:42.140 ,1979-02-22 01:19:23.710 ,8,1,-1.00,-1.00,171.,3.98,44.4,1.14,77.9,4.02,-1.00,-1.00
1979-02-22 01:19:23.770 ,1979-02-22 01:19:29.710 ,8,-1,146.,4.93,-1.00,-1.00,40.8,2.92,-1.00,-1.00,-1.00,-1.00
1979-02-22 01:19:30.140 ,1979-02-22 01:19:53.710 ,7,-1,133.,5.25,-1.00,-1.00,44.6,1.52,-1.00,-1.00,-1.00,-1.00
1979-02-22 01:19:54.140 ,1979-02-22 01:20:17.710 ,6,-1,-1.00,-1.00,-1.00,-1.00,50.6,1.62,-1.00,-1.00,-1.00,-1.00
1979-02-22 01:20:18.140 ,1979-02-22 01:20:41.710 ,5,-1,-1.00,-1.00,-1.00,-1.00,43.5,1.50,-1.00,-1.00,-1.00,-1.00
1979-02-22 01:20:42.140 ,1979-02-22 01:21:05.710 ,4,-1,-1.00,-1.00,-1.00,-1.00,45.8,1.54,-1.00,-1.00,-1.00,-1.00
1979-02-22 01:21:06.140 ,1979-02-22 01:21:29.710 ,3,-1,-1.00,-1.00,-1.00,-1.00,44.6,1.52,-1.00,-1.00,36.8,2.47
1979-02-22 01:21:30.140 ,1979-02-22 01:21:53.710 ,2,-1,-1.00,-1.00,-1.00,-1.00,48.3,1.59,73.7,3.50,32.1,2.58
1979-02-22 01:21:53.770 ,1979-02-22 01:22:18.140 ,1,-1,-1.00,-1.00,185.,5.06,43.3,1.73,85.0,8.41,-1.00,-1.00
1979-02-22 01:22:18.140 ,1979-02-22 01:22:41.710 ,1,1,142.,4.86,195.,6.37,45.4,1.53,-1.00,-1.00,-1.00,-1.00
1979-02-22 01:22:42.140 ,1979-02-22 01:23:05.710 ,2,1,146.,5.49,-1.00,-1.00,46.9,1.56,-1.00,-1.00,-1.00,-1.00
1979-02-22 01:23:06.140 ,1979-02-22 01:23:29.710 ,3,1,-1.00,-1.00,-1.00,-1.00,47.5,1.57,-1.00,-1.00,-1.00,-1.00
1979-02-22 01:23:30.140 ,1979-02-22 01:23:53.710 ,4,1,-1.00,-1.00,-1.00,-1.00,45.8,1.54,-1.00,-1.00,-1.00,-1.00
1979-02-22 01:23:54.140 ,1979-02-22 01:24:17.710 ,5,1,-1.00,-1.00,-1.00,-1.00,45.0,1.53,-1.00,-1.00,-1.00,-1.00
1979-02-22 01:24:18.140 ,1979-02-22 01:24:41.710 ,6,1,-1.00,-1.00,-1.00,-1.00,48.3,1.59,-1.00,-1.00,33.2,2.35